コワルスキー彗星

384P/Kowalski (2019)

English version
Home page
Updated on January 23, 2020

---------------------------------------------------------------------

・ プロフィール

符号 384P/2019 O1
検出日 2019年7月27日
検出光度 20.0等
検出者 Hidetaka Sato (Tokyo, Japan)

・ 写真集

・ 軌道要素

Epoch 2019 Oct. 4.0 TT = JDT 2458760.5
T 2019 Oct. 11.41150 TT                                 Williams
q   1.1163598            (2000.0)            P               Q
n   0.19936172     Peri.   37.64378     +0.84867465     -0.52876200
a   2.9020721      Node   354.23478     +0.44925492     +0.73334991
e   0.6153232      Incl.    7.28122     +0.27914396     +0.42732735
P   4.94
From 342 observations 2014 Oct. 18-2019 Nov. 3, mean residual 0".5.

・ 星図

・ 光度変化

        m1 = 19.0 + 5 logΔ + 10.0 log r(t - 30)

---------------------------------------------------------------------

軌道要素はM.P.E.C. 2019-V116に掲載されたものです。
星図はステラナビゲータ Ver.10 (アストロアーツ) で作成したものです。
光度グラフはComet for Windowsで作成したものです。

---------------------------------------------------------------------

Copyright(C) Seiichi Yoshida (comet@aerith.net). All rights reserved.